Other Surface Observations
Issued by NWS Upton, NY

Home | Current Version | Previous Version | Text Only | Print | Product List | Glossary On
Versions: 1 2 3 4 5 6 7 8 9 10 11 12 13 14 15 16 17 18 19 20 21 22 23 24 25 26 27 28 29 30 31 32 33 34 35 36 37 38 39 40 41 42 43 44 45 46 47 48 49 50
776
SXUS51 KOKX 270057
OSOOKX
New York City Metropolitan Area Weather Roundup
National Weather Service New York NY
900 PM EDT THU APR 26 2018

CITY           SKY/WX    TMP DP  RH WIND       PRES   REMARKS
Central Park   FAIR      65  39  38 W3        29.87R
LaGuardia Arpt FAIR      65  39  38 NW8       29.84R
Kennedy Intl   FAIR      60  46  59 W10       29.86R
Newark Liberty FAIR      65  42  43 SW9       29.84R
Teterboro Arpt FAIR      64  41  42 N6        29.83R
Bronx Bot Gard   N/A     63  37  39 N1        29.87R
Bronx Lehman C   N/A     64  39  39 N2          N/A
Queens College   N/A     66  43  42 W8          N/A
Breezy Point     N/A     55 N/A N/A W6          N/A
Brooklyn Coll    N/A     64  41  42 SW8         N/A
Staten Island    N/A     63  41  45 W6          N/A

>>>>>>>>>>>>>>>>>>>>>>>>>>>>>>>>> KEY <<<<<<<<<<<<<<<<<<<<<<<<<<<<<<<
> SKY/WX - Sky Condition/Present    : R : WCI - Wind Chill Index    <
>          Weather                  : E : VSB - Visibility in Miles <
> TMP    - Temperature in Deg F     : M : HX  - Heat Index          <
> DP     - Dew Point Temperature    : A : TC  - Temperature in      <
> RH     - Relative Humidity        : R :       Celsius             <
> WIND   - Direction/Speed (mph)    : K : VRB - Variable Wind Dir   <
> PRES   - Pressure (in Hg)         : S :                           <
>>>>>>>>>>>>>>>>>>>>>>>>>>>>>>>>> KEY <<<<<<<<<<<<<<<<<<<<<<<<<<<<<<<




USA.gov is the U.S. government's official web portal to all federal, state and local government web resources and services.